This demonstration page uses our WeatherBlox Daily Observations layout. Learn more.

Left ArrowRight Arrow

Hourly Observations for May 4, 2020

Temp ( °F °C ) Dew Point ( °F °C ) Humidity (%) Winds ( mph kmh ) Pressure ( in mb ) Visibility ( mi km ) Precip ( " mm )
12:53 am 00:53 Clear 53 11.7 41 5 64 64 Calm 30.12 1020 10 16 0.00 0.00
1:53 am 01:53 Clear 51 10.6 40 4.4 66 66 N 3 6 30.12 1020 10 16 0.00 0.00
2:53 am 02:53 Clear 50 10 40 4.4 68 68 NNW 6 9 30.12 1020 10 16 0.00 0.00
3:53 am 03:53 Clear 50 10 39 3.9 66 66 N 3 6 30.12 1020 10 16 0.00 0.00
4:53 am 04:53 Clear 47 8.3 40 4.4 77 77 N 3 6 30.13 1020 10 16 0.00 0.00
5:53 am 05:53 Clear 45 7.2 39 3.9 80 80 Calm 30.14 1021 10 16 0.00 0.00
6:53 am 06:53 Sunny 47 8.3 41 5 80 80 NNE 3 6 30.15 1021 10 16 0.00 0.00
7:53 am 07:53 Sunny 55 12.8 40 4.4 57 57 NNW 3 6 30.17 1022 10 16 0.00 0.00
8:53 am 08:53 Sunny 60 15.6 40 4.4 47 47 NNE 6 9 30.16 1022 10 16 0.00 0.00
9:53 am 09:53 Sunny 66 18.9 42 5.6 42 42 NNE 7 11 30.16 1021 10 16 0.00 0.00
10:53 am 10:53 Sunny 71 21.7 39 3.9 31 31 NNE 3 6 30.16 1021 10 16 0.00 0.00
11:53 am 11:53 Sunny 74 23.3 36 2.2 25 25 Calm 30.14 1021 10 16 0.00 0.00
12:53 pm 12:53 Sunny 76 24.4 38 3.3 25 25 VRB 3 6 30.13 1020 10 16 0.00 0.00
1:53 pm 13:53 Sunny 77 25 38 3.3 24 24 S 3 6 30.11 1020 10 16 0.00 0.00
2:53 pm 14:53 Sunny 79 26.1 37 2.8 22 22 NNE 5 7 30.10 1019 10 16 0.00 0.00
3:53 pm 15:53 Sunny 81 27.2 38 3.3 21 21 VRB 3 6 30.07 1018 10 16 0.00 0.00
4:53 pm 16:53 Sunny 81 27.2 36 2.2 20 20 Calm 30.05 1018 10 16 0.00 0.00
5:53 pm 17:53 Sunny 81 27.2 31 -0.6 16 16 SE 3 6 30.04 1017 10 16 0.00 0.00
6:53 pm 18:53 Sunny 81 27.2 35 1.7 19 19 ESE 3 6 30.03 1017 10 16 0.00 0.00
7:53 pm 19:53 Sunny 74 23.3 43 6.1 33 33 Calm 30.03 1017 10 16 0.00 0.00
8:53 pm 20:53 Clear 69 20.6 47 8.3 45 45 Calm 30.04 1017 10 16 0.00 0.00
9:53 pm 21:53 Clear 64 17.8 45 7.2 50 50 W 7 11 30.05 1018 10 16 0.00 0.00
10:53 pm 22:53 Clear 62 16.7 47 8.3 58 58 N 3 6 30.06 1018 10 16 0.00 0.00
11:53 pm 23:53 Clear 60 15.6 46 7.8 60 60 NNE 5 7 30.06 1018 10 16 0.00 0.00

Powered by AerisWeather